Regional Weather Roundup
Issued by NWS

Home | Current Version | Previous Version | Graphics & Text | Print | Product List | Glossary On
Versions: 1 2 3 4 5 6 7 8 9 10 11 12 13 14 15 16 17 18 19 20 21 22 23 24 25 26 27 28 29 30 31 32 33 34 35 36 37 38 39 40 41 42 43 44 45 46 47 48 49 50
000
ASUS43 KLMK 291902
RWRKY
KENTUCKY REGIONAL WEATHER ROUNDUP
NATIONAL WEATHER SERVICE LOUISVILLE KY
300 PM EDT TUE JUL 29 2014

NOTE "FAIR" INDICATES FEW OR NO CLOUDS BELOW 12,000 FEET
WITH NO SIGNIFICANT WEATHER AND/OR OBSTRUCTIONS TO VISIBILITY.

KYZ001>023-026-027-061>063-070>075-292000-
WESTERN AND SOUTH CENTRAL KENTUCKY

CITY           SKY/WX    TMP DP  RH WIND       PRES   REMARKS
PADUCAH        PTSUNNY   78  52  40 NW6       30.12F
HENDERSON      MOSUNNY   79  55  44 NW9       30.10S
OWENSBORO      MOSUNNY   77  54  44 N9        30.10F
HOPKINSVILLE   MOSUNNY   78  50  36 N9        30.10F
BOWLING GREEN  PTSUNNY   76  51  41 N9        30.09F
GLASGOW        PTSUNNY   73  52  47 N7        30.09F
$$

KYZ024-025-028>034-038-045-046-053-292000-
NORTH CENTRAL KENTUCKY

CITY           SKY/WX    TMP DP  RH WIND       PRES   REMARKS
LOUISVILLE/SDF MOSUNNY   75  51  43 VRB5      30.08F
LOUISVILLE/LOU SUNNY     76  53  44 N9        30.09S
FORT KNOX      PTSUNNY   73  57  57 VRB3      30.08F
$$

KYZ035>037-039>044-047>052-055>060-089>105-292000-
NORTHEAST KENTUCKY

CITY           SKY/WX    TMP DP  RH WIND       PRES   REMARKS
LEXINGTON      PTSUNNY   71  53  52 VRB6      30.09S
COVINGTON      MOSUNNY   70  50  49 VRB3      30.08R
FRANKFORT      MOSUNNY   72  52  49 NW7       30.08F
$$

KYZ054-064>069-076>088-106>120-292000-
SOUTHEAST KENTUCKY

CITY           SKY/WX    TMP DP  RH WIND       PRES   REMARKS
JACKSON        MOSUNNY   69  52  54 VRB3      30.07F
LONDON         PTSUNNY   70  51  51 N8        30.08F
SOMERSET       PTSUNNY   70  50  49 N5        30.09F
MIDDLESBORO    SUNNY     72  52  48 W7        30.07S
MONTICELLO     PTCLDY    73  54  51 VRB7      30.11F
$$




USA.gov is the U.S. government's official web portal to all federal, state and local government web resources and services.